Regional Weather Roundup
Issued by NWS

Home | Current Version | Previous Version | Graphics & Text | Print | Product List | Glossary Off
Versions: 1 2 3 4 5 6 7 8 9 10 11 12 13 14 15 16 17 18 19 20 21 22 23 24 25 26 27 28 29 30 31 32 33 34 35 36 37 38 39 40 41 42 43 44 45 46

000
ASUS45 KBOI 261610
RWRID
WEATHER ROUNDUP FOR IDAHO
NATIONAL WEATHER SERVICE BOISE ID
900 AM MST FRI DEC 26 2014

NOTE: "FAIR" INDICATES FEW OR NO CLOUDS BELOW 12000 FEET
WITH NO SIGNIFICANT WEATHER AND/OR OBSTRUCTIONS TO VISIBILITY

IDZ012-014-261700-
SOUTHWEST IDAHO


CITY           SKY/WX    TMP DP  RH WIND       PRES   REMARKS
BOISE          MOCLDY    28  22  78 NW6       30.15R WCI  22
CALDWELL       MOCLDY    30  19  64 SW12      30.19R WCI  21
MOUNTAIN HOME  CLOUDY    30  25  82 NW17      30.12R WCI  18
$$

IDZ016-017-261700-
SOUTHCENTRAL IDAHO


CITY           SKY/WX    TMP DP  RH WIND       PRES   REMARKS
BURLEY         CLOUDY    23  18  81 W10       30.05R WCI  12
JEROME         CLOUDY    18  15  88 NE8       30.07R WCI   8
TWIN FALLS     CLOUDY    22  18  85 W12       30.06R WCI  10
$$

IDZ019>023-261700-
SOUTHEAST IDAHO


CITY           SKY/WX    TMP DP  RH WIND       PRES   REMARKS
IDAHO FALLS    PTCLDY     0  -3  87 SW3       30.04R
POCATELLO      MOCLDY     7   5  91 E6        30.06R WCI  -3
REXBURG        PTCLDY    -2  -4  91 CALM      30.02R
$$

IDZ006-010-011-018-031-032-261700-
CENTRAL IDAHO MOUNTAINS


CITY           SKY/WX    TMP DP  RH WIND       PRES   REMARKS
MCCALL         FLURRIES  17  15  92 NE3       30.05R
HAILEY         PTCLDY    10   3  72 NW7       30.02R WCI   0
STANLEY          N/A     10   5  80 CALM      30.00R
SALMON         CLOUDY    19  18  93 CALM      30.08R
CHALLIS        CLOUDY    18  13  80 CALM      30.04R
$$

IDZ002-004-006-007-026-261700-
NORTHERN IDAHO


CITY           SKY/WX    TMP DP  RH WIND       PRES   REMARKS
LEWISTON       PTCLDY    33  28  81 S5        30.24R WCI  29
LOWELL           N/A     33  31  92 CALM      30.24R
COEUR D`ALENE  CLOUDY    27  25  93 CALM      30.19R
MULLAN PASS    CLOUDY    20  13  74 VRB3      29.98R
$$


USA.gov is the U.S. government's official web portal to all federal, state and local government web resources and services.